When you browse on this site, cookies collect data to enhance your experience and personalize the content and advertising you see.
Visit our Privacy Policy to learn more. By continuing to use the site, you agree to this use of cookies and data.
  • In Slovakia
  • List of Countries
  • For 7 days
  • Water Temperature
  • Weather Map
  • Weather Widgets
  • user-avatar
    Login

    Hourly Weather Malanje

    Today, 19 August, Monday

    Time Temperature Precipitation Wind Pressure Humidity
    00:00 +20°C° 0 mm 1 mps 665 mmHg 58%
    01:00 +19°C° 0 mm 1 mps 665 mmHg 59%
    02:00 +18°C° 0 mm 1 mps 665 mmHg 68%
    03:00 +16°C° 0 mm 1 mps 664 mmHg 78%
    04:00 +15°C° 0 mm 1 mps 664 mmHg 87%
    05:00 +16°C° 0 mm 1 mps 665 mmHg 82%
    06:00 +16°C° 0 mm 1 mps 665 mmHg 78%
    07:00 +18°C° 0 mm 1 mps 666 mmHg 73%
    08:00 +21°C° 0 mm 2 mps 667 mmHg 55%
    09:00 +26°C° 0 mm 2 mps 667 mmHg 36%
    10:00 +30°C° 0 mm 3 mps 668 mmHg 17%
    11:00 +33°C° 0 mm 3 mps 668 mmHg 15%
    12:00 +35°C° 0 mm 2 mps 667 mmHg 13%
    13:00 +37°C° 0 mm 2 mps 667 mmHg 11%
    14:00 +37°C° 0 mm 2 mps 666 mmHg 11%
    15:00 +37°C° 0 mm 2 mps 666 mmHg 11%
    16:00 +37°C° 0 mm 2 mps 665 mmHg 11%
    17:00 +32°C° 0 mm 1 mps 665 mmHg 13%
    18:00 +29°C° 0 mm 1 mps 664 mmHg 16%
    19:00 +26°C° 0 mm 1 mps 664 mmHg 19%
    20:00 +24°C° 0 mm 1 mps 664 mmHg 27%
    21:00 +23°C° 0 mm 2 mps 665 mmHg 35%
    22:00 +21°C° 0 mm 2 mps 665 mmHg 43%
    23:00 +19°C° 0 mm 2 mps 665 mmHg 53%

    Tomorrow, 20 August, Tuesday

    Time Temperature Precipitation Wind Pressure Humidity
    00:00 +19°C° 0 mm 1 mps 664 mmHg 63%
    01:00 +18°C° 0 mm 1 mps 664 mmHg 72%
    02:00 +16°C° 0 mm 1 mps 664 mmHg 77%
    03:00 +16°C° 0 mm 1 mps 664 mmHg 81%
    04:00 +15°C° 0 mm 1 mps 664 mmHg 85%
    05:00 +16°C° 0 mm 1 mps 665 mmHg 74%
    06:00 +18°C° 0 mm 1 mps 665 mmHg 64%
    07:00 +17°C° 0 mm 2 mps 666 mmHg 53%
    08:00 +21°C° 0 mm 2 mps 667 mmHg 39%
    09:00 +26°C° 0 mm 3 mps 668 mmHg 25%
    10:00 +30°C° 0 mm 4 mps 668 mmHg 11%
    11:00 +33°C° 0 mm 3 mps 668 mmHg 10%
    12:00 +35°C° 0 mm 3 mps 667 mmHg 10%
    13:00 +37°C° 0 mm 3 mps 667 mmHg 10%
    14:00 +37°C° 0 mm 2 mps 666 mmHg 10%
    15:00 +37°C° 0 mm 2 mps 666 mmHg 10%
    16:00 +37°C° 0 mm 2 mps 665 mmHg 10%
    17:00 +32°C° 0 mm 2 mps 665 mmHg 13%
    18:00 +29°C° 0 mm 1 mps 665 mmHg 15%
    19:00 +25°C° 0 mm 1 mps 664 mmHg 18%
    20:00 +24°C° 0 mm 1 mps 665 mmHg 23%
    21:00 +23°C° 0 mm 1 mps 665 mmHg 27%
    22:00 +21°C° 0 mm 2 mps 665 mmHg 31%
    23:00 +19°C° 0 mm 2 mps 665 mmHg 45%

    Day after tomorrow, 21 August, Wednesday

    Time Temperature Precipitation Wind Pressure Humidity
    00:00 +19°C° 0 mm 1 mps 664 mmHg 58%
    01:00 +16°C° 0 mm 1 mps 664 mmHg 72%
    02:00 +15°C° 0 mm 1 mps 664 mmHg 78%
    03:00 +15°C° 0 mm 1 mps 664 mmHg 84%
    04:00 +13°C° 0 mm 0 mps 664 mmHg 90%
    05:00 +14°C° 0 mm 0 mps 665 mmHg 82%
    06:00 +15°C° 0 mm 0 mps 666 mmHg 74%
    07:00 +16°C° 0 mm 0 mps 666 mmHg 66%
    08:00 +22°C° 0 mm 1 mps 667 mmHg 48%
    09:00 +26°C° 0 mm 2 mps 668 mmHg 30%
    10:00 +31°C° 0 mm 3 mps 669 mmHg 13%
    11:00 +33°C° 0 mm 3 mps 668 mmHg 11%
    12:00 +35°C° 0 mm 3 mps 668 mmHg 10%
    13:00 +37°C° 0 mm 3 mps 667 mmHg 9%
    14:00 +37°C° 0 mm 3 mps 666 mmHg 9%
    15:00 +36°C° 0 mm 3 mps 666 mmHg 10%
    16:00 +36°C° 0 mm 3 mps 665 mmHg 10%
    17:00 +32°C° 0 mm 2 mps 665 mmHg 12%
    18:00 +29°C° 0 mm 2 mps 665 mmHg 14%
    19:00 +26°C° 0 mm 2 mps 665 mmHg 17%
    20:00 +25°C° 0 mm 2 mps 665 mmHg 25%
    21:00 +23°C° 0 mm 2 mps 665 mmHg 33%
    22:00 +20°C° 0 mm 2 mps 665 mmHg 40%
    23:00 +19°C° 0 mm 2 mps 665 mmHg 56%

    22 August, Thursday

    Time Temperature Precipitation Wind Pressure Humidity
    00:00 +17°C° 0 mm 2 mps 665 mmHg 71%
    01:00 +16°C° 0 mm 2 mps 664 mmHg 86%
    02:00 +15°C° 0 mm 1 mps 664 mmHg 90%
    03:00 +14°C° 0 mm 1 mps 665 mmHg 93%
    04:00 +14°C° 0 mm 1 mps 665 mmHg 97%
    05:00 +14°C° 0 mm 1 mps 665 mmHg 92%
    06:00 +15°C° 0 mm 1 mps 666 mmHg 88%
    07:00 +16°C° 0 mm 1 mps 666 mmHg 83%
    08:00 +21°C° 0 mm 1 mps 667 mmHg 61%
    09:00 +26°C° 0 mm 2 mps 668 mmHg 38%
    10:00 +30°C° 0 mm 3 mps 669 mmHg 16%
    11:00 +33°C° 0 mm 3 mps 668 mmHg 14%
    12:00 +34°C° 0 mm 3 mps 668 mmHg 12%
    13:00 +36°C° 0 mm 3 mps 667 mmHg 11%
    14:00 +36°C° 0 mm 2 mps 666 mmHg 11%
    15:00 +36°C° 0 mm 2 mps 666 mmHg 10%
    16:00 +36°C° 0 mm 2 mps 665 mmHg 10%
    17:00 +32°C° 0 mm 1 mps 665 mmHg 13%
    18:00 +28°C° 0 mm 1 mps 665 mmHg 16%
    19:00 +25°C° 0 mm 1 mps 665 mmHg 19%
    20:00 +24°C° 0 mm 1 mps 665 mmHg 27%
    21:00 +21°C° 0 mm 2 mps 665 mmHg 34%
    22:00 +20°C° 0 mm 2 mps 665 mmHg 42%
    23:00 +19°C° 0 mm 2 mps 665 mmHg 56%

    23 August, Friday

    Time Temperature Precipitation Wind Pressure Humidity
    00:00 +17°C° 0 mm 2 mps 665 mmHg 71%
    01:00 +15°C° 0 mm 2 mps 664 mmHg 86%
    02:00 +15°C° 0 mm 1 mps 664 mmHg 89%
    03:00 +14°C° 0 mm 1 mps 664 mmHg 92%
    04:00 +13°C° 0 mm 1 mps 664 mmHg 95%
    05:00 +14°C° 0 mm 1 mps 665 mmHg 87%
    06:00 +14°C° 0 mm 0 mps 666 mmHg 79%
    07:00 +15°C° 0 mm 0 mps 667 mmHg 71%
    08:00 +21°C° 0 mm 1 mps 667 mmHg 52%
    09:00 +25°C° 0 mm 2 mps 668 mmHg 34%
    10:00 +29°C° 0 mm 3 mps 669 mmHg 16%
    11:00 +31°C° 0 mm 3 mps 668 mmHg 14%
    12:00 +34°C° 0 mm 3 mps 668 mmHg 13%
    13:00 +36°C° 0 mm 2 mps 667 mmHg 12%
    14:00 +36°C° 0 mm 2 mps 667 mmHg 12%
    15:00 +36°C° 0 mm 2 mps 666 mmHg 12%
    16:00 +36°C° 0 mm 2 mps 666 mmHg 12%
    17:00 +31°C° 0 mm 2 mps 665 mmHg 15%
    18:00 +28°C° 0 mm 1 mps 665 mmHg 18%
    19:00 +25°C° 0 mm 1 mps 665 mmHg 21%
    20:00 +24°C° 0 mm 2 mps 665 mmHg 26%
    21:00 +23°C° 0 mm 2 mps 666 mmHg 32%
    22:00 +21°C° 0 mm 3 mps 666 mmHg 37%
    23:00 +19°C° 0 mm 3 mps 665 mmHg 54%

    24 August, Saturday

    Time Temperature Precipitation Wind Pressure Humidity
    00:00 +18°C° 0 mm 3 mps 665 mmHg 70%
    01:00 +16°C° 0 mm 3 mps 665 mmHg 87%
    02:00 +14°C° 0 mm 3 mps 665 mmHg 90%
    03:00 +15°C° 0 mm 2 mps 665 mmHg 93%
    04:00 +14°C° 0 mm 2 mps 665 mmHg 96%
    05:00 +15°C° 0 mm 2 mps 666 mmHg 93%
    06:00 +15°C° 0 mm 2 mps 666 mmHg 90%
    07:00 +16°C° 0 mm 2 mps 667 mmHg 87%
    08:00 +20°C° 0 mm 2 mps 667 mmHg 65%
    09:00 +25°C° 0 mm 2 mps 668 mmHg 44%
    10:00 +29°C° 0 mm 3 mps 669 mmHg 22%
    11:00 +31°C° 0 mm 2 mps 668 mmHg 18%
    12:00 +34°C° 0 mm 2 mps 668 mmHg 15%
    13:00 +36°C° 0 mm 2 mps 667 mmHg 11%
    14:00 +36°C° 0 mm 2 mps 667 mmHg 11%
    15:00 +36°C° 0 mm 2 mps 666 mmHg 11%
    16:00 +35°C° 0 mm 2 mps 665 mmHg 11%
    17:00 +31°C° 0 mm 2 mps 665 mmHg 14%
    18:00 +28°C° 0 mm 1 mps 665 mmHg 17%
    19:00 +25°C° 0 mm 1 mps 664 mmHg 20%
    20:00 +23°C° 0 mm 1 mps 665 mmHg 34%
    21:00 +20°C° 0 mm 2 mps 665 mmHg 48%
    22:00 +19°C° 0 mm 3 mps 665 mmHg 62%
    23:00 +18°C° 0 mm 2 mps 665 mmHg 67%
    Show more